{"data":{"norad_id":58894,"intl_designator":"2024-020U","name":"STARLINK-31243","alt_names":[],"object_type":"PAYLOAD","status":"ACTIVE","operator":null,"country":"US","launch_date":"2024-01-29","launch_site_code":"AFWTR","launch_vehicle":null,"mission":null,"orbit_class":"UNKNOWN","rcs_meters":null,"size_class":null,"mass_kg":null,"dimensions":null,"purposes":["comms"],"wikipedia_slug":null,"has_3d_model":false,"image_url":null,"decayed_at":null,"tle_current":{"epoch":"2026-05-24T20:37:41.467008Z","epoch_age_seconds":101382,"freshness":"FRESH","line1":"1 58894U 24020U   26144.85950772  .00000850  00000+0  39152-4 0  9998","line2":"2 58894  53.1611 328.5755 0001137  82.6098 277.5032 15.31703643129734","mean_motion":15.31703643,"eccentricity":0.0001137,"inclination_deg":53.1611,"raan_deg":328.5755,"arg_perigee_deg":82.6098,"mean_anomaly_deg":277.5032,"bstar":3.9152e-5,"rev_number":12973,"period_min":94.012964360365,"perigee_km":469.95041957411,"apogee_km":471.50785173336,"semimajor_km":6848.8661356537,"source":"CELESTRAK","updated_at":"2026-05-25T13:38:18.787251Z"}}}